EW7239 Weather Reports


time (UTC)temp
C
wind
direction
speed
KPH
gust
KPH
rain 1hr
cm
rain 24hr
cm
rain mn
cm
humidity
%
barometer
mb
20260831232323 31 218 16.1 25.7 0.00 0.00 0.00 33 1012.2
20260831231823 31 222 16.1 27.4 0.00 0.00 0.00 34 1012.2
20260831231317 31 217 17.7 30.6 0.00 0.00 0.00 33 1012.3
20260831230818 31 228 16.1 30.6 0.00 0.00 0.00 35 1012.3
20260831230332 31 221 16.1 25.7 0.00 0.00 0.00 36 1012.3
20260831225818 31 219 14.5 25.7 0.00 0.00 0.00 36 1012.2
20260831225314 31 213 14.5 25.7 0.00 0.00 0.00 37 1012.2
20260831224814 31 234 14.5 25.7 0.00 0.00 0.00 38 1012.2
20260831224545 31 214 16.1 24.1 0.00 0.00 0.00 38 1012.3
20260831223815 31 219 16.1 24.1 0.00 0.00 0.00 38 1012.3
20260831223311 31 226 14.5 24.1 0.00 0.00 0.00 38 1012.3
20260831223041 32 230 14.5 24.1 0.00 0.00 0.00 38 1012.3
20260831222310 32 219 12.9 19.3 0.00 0.00 0.00 38 1012.5
20260831221811 32 245 12.9 27.4 0.00 0.00 0.00 38 1012.6
20260831221305 32 221 11.3 27.4 0.00 0.00 0.00 38 1012.6
20260831220806 32 219 11.3 20.9 0.00 0.00 0.00 37 1012.7
20260831220306 32 226 12.9 22.5 0.00 0.00 0.00 38 1012.8
20260831215806 32 236 11.3 22.5 0.00 0.00 0.00 35 1012.8
20260831214802 32 225 11.3 20.9 0.00 0.00 0.00 35 1012.9
20260831214533 32 227 11.3 20.9 0.00 0.00 0.00 35 1013.0
20260831213802 32 218 11.3 20.9 0.00 0.00 0.00 33 1013.0
20260831213529 33 205 11.3 20.9 0.00 0.00 0.00 33 1013.0
20260831212759 32 245 11.3 20.9 0.00 0.00 0.00 31 1013.0
20260831212258 33 219 9.7 20.9 0.00 0.00 0.00 33 1013.1
20260831211758 32 239 11.3 19.3 0.00 0.00 0.00 32 1013.3
20260831211524 32 213 11.3 17.7 0.00 0.00 0.00 33 1013.2
20260831210754 32 225 11.3 19.3 0.00 0.00 0.00 32 1013.3
20260831210254 32 211 11.3 20.9 0.00 0.00 0.00 32 1013.3
20260831210025 32 242 11.3 20.9 0.00 0.00 0.00 31 1013.3
20260831205249 32 223 11.3 19.3 0.00 0.00 0.00 32 1013.4
20260831205021 32 224 9.7 19.3 0.00 0.00 0.00 34 1013.4
20260831204251 32 263 9.7 19.3 0.00 0.00 0.00 34 1013.4
20260831203750 32 219 11.3 16.1 0.00 0.00 0.00 34 1013.4
20260831203246 32 211 11.3 19.3 0.00 0.00 0.00 37 1013.4
20260831202746 32 219 11.3 19.3 0.00 0.00 0.00 37 1013.5
20260831202246 32 235 9.7 22.5 0.00 0.00 0.00 36 1013.5
20260831201746 32 190 8.0 22.5 0.00 0.00 0.00 34 1013.5
20260831201243 32 252 9.7 19.3 0.00 0.00 0.00 37 1013.5
20260831200513 32 268 6.4 19.3 0.00 0.00 0.00 38 1013.5
20260831195743 31 227 8.0 12.9 0.00 0.00 0.00 41 1013.5
20260831195510 31 215 9.7 16.1 0.00 0.00 0.00 39 1013.6
20260831194738 32 223 8.0 16.1 0.00 0.00 0.00 38 1013.7
20260831194239 31 235 6.4 17.7 0.00 0.00 0.00 40 1013.7
20260831193738 31 250 8.0 17.7 0.00 0.00 0.00 40 1013.7
20260831193234 31 217 8.0 16.1 0.00 0.00 0.00 41 1013.7
20260831192734 31 219 8.0 12.9 0.00 0.00 0.00 43 1013.8
20260831192235 30 223 6.4 14.5 0.00 0.00 0.00 44 1013.9
20260831192006 30 216 4.8 14.5 0.00 0.00 0.00 47 1013.9
20260831191229 30 217 6.4 14.5 0.00 0.00 0.00 47 1014.0
20260831190730 30 212 6.4 16.1 0.00 0.00 0.00 47 1014.1
20260831190502 29 232 8.0 17.7 0.00 0.00 0.00 48 1014.2
20260831185731 29 222 8.0 17.7 0.00 0.00 0.00 50 1014.2
20260831185226 29 219 6.4 12.9 0.00 0.00 0.00 52 1014.2
20260831184957 29 229 8.0 12.9 0.00 0.00 0.00 52 1014.2
20260831184226 29 221 6.4 12.9 0.00 0.00 0.00 52 1014.3
20260831183726 29 229 6.4 11.3 0.00 0.00 0.00 53 1014.3
20260831183454 29 225 4.8 11.3 0.00 0.00 0.00 55 1014.3
20260831182722 28 228 4.8 11.3 0.00 0.00 0.00 58 1014.3
20260831182222 28 225 6.4 12.9 0.00 0.00 0.00 59 1014.3
20260831181722 28 228 6.4 12.9 0.00 0.00 0.00 59 1014.3
20260831181217 27 213 8.0 11.3 0.00 0.00 0.00 61 1014.3
20260831180718 27 199 6.4 11.3 0.00 0.00 0.00 60 1014.4
20260831180218 27 206 6.4 11.3 0.00 0.00 0.00 62 1014.4
20260831175718 27 208 6.4 12.9 0.00 0.00 0.00 62 1014.4
20260831175214 27 207 6.4 12.9 0.00 0.00 0.00 63 1014.4
20260831174715 27 212 6.4 12.9 0.00 0.00 0.00 63 1014.5
20260831174214 27 226 4.8 11.3 0.00 0.00 0.00 64 1014.5
20260831173715 26 227 4.8 9.7 0.00 0.00 0.00 65 1014.5
20260831173210 26 227 4.8 11.3 0.00 0.00 0.00 67 1014.4
20260831172711 26 228 6.4 11.3 0.00 0.00 0.00 67 1014.4
20260831172210 26 229 4.8 9.7 0.00 0.00 0.00 67 1014.4
20260831171711 25 226 4.8 9.7 0.00 0.00 0.00 70 1014.4
20260831171211 25 226 4.8 9.7 0.00 0.00 0.00 71 1014.4
20260831170706 25 226 4.8 9.7 0.00 0.00 0.00 71 1014.4
20260831170206 25 235 4.8 9.7 0.00 0.00 0.00 71 1014.3
20260831165706 25 236 3.2 9.7 0.00 0.00 0.00 72 1014.3
20260831165202 25 237 4.8 9.7 0.00 0.00 0.00 73 1014.2
20260831164936 24 237 4.8 9.7 0.00 0.00 0.00 71 1014.2
20260831164202 25 241 3.2 8.0 0.00 0.00 0.00 73 1014.2
20260831163159 24 246 4.8 9.7 0.00 0.00 0.00 73 1014.1
20260831162658 24 247 4.8 9.7 0.00 0.00 0.00 74 1014.1
20260831162158 24 249 4.8 9.7 0.00 0.00 0.00 74 1014.2
20260831161929 23 250 3.2 9.7 0.00 0.00 0.00 76 1014.1
20260831161424 23 250 3.2 8.0 0.00 0.00 0.00 77 1014.1
20260831160654 23 250 3.2 8.0 0.00 0.00 0.00 78 1014.2
20260831160155 23 250 3.2 8.0 0.00 0.00 0.00 78 1014.2
20260831155655 23 250 3.2 6.4 0.00 0.00 0.00 80 1014.2
20260831155152 23 250 1.6 6.4 0.00 0.00 0.00 80 1014.2
20260831154651 22 250 3.2 6.4 0.00 0.00 0.00 80 1014.1
20260831154151 22 250 3.2 6.4 0.00 0.00 0.00 81 1014.2
20260831153651 22 250 1.6 6.4 0.00 0.00 0.00 81 1014.2
20260831153146 22 250 1.6 6.4 0.00 0.00 0.00 82 1014.2
20260831152646 22 250 1.6 4.8 0.00 0.00 0.00 82 1014.2
20260831152146 22 250 0.0 4.8 0.00 0.00 0.00 83 1014.2
20260831151646 22 250 0.0 3.2 0.00 0.00 0.00 83 1014.2
20260831151141 22 250 0.0 6.4 0.00 0.00 0.00 84 1014.1
20260831150655 21 250 1.6 6.4 0.00 0.00 0.00 83 1014.1
20260831150142 21 250 0.0 4.8 0.00 0.00 0.00 84 1014.1
20260831145645 21 250 0.0 3.2 0.00 0.00 0.00 84 1014.1
20260831145137 21 250 0.0 4.8 0.00 0.00 0.00 83 1014.1
20260831144638 21 250 0.0 4.8 0.00 0.00 0.00 83 1014.1
20260831144138 21 250 0.0 3.2 0.00 0.00 0.00 83 1014.0
20260831143638 21 250 1.6 4.8 0.00 0.00 0.00 83 1014.0
20260831142635 21 250 0.0 3.2 0.00 0.00 0.00 83 1013.9
20260831142134 20 250 0.0 0.0 0.00 0.00 0.00 83 1013.9
20260831141635 20 250 0.0 0.0 0.00 0.00 0.00 83 1013.9
20260831141130 20 250 0.0 4.8 0.00 0.00 0.00 83 1013.8
20260831140630 20 250 1.6 4.8 0.00 0.00 0.00 84 1013.7
20260831140131 20 250 1.6 4.8 0.00 0.00 0.00 84 1013.7
20260831135630 20 250 3.2 6.4 0.00 0.00 0.00 84 1013.6
20260831135126 20 250 3.2 6.4 0.00 0.00 0.00 84 1013.5
20260831134626 20 250 3.2 6.4 0.00 0.00 0.00 83 1013.4
20260831134127 20 250 3.2 6.4 0.00 0.00 0.00 84 1013.4
20260831133858 20 250 4.8 6.4 0.00 0.00 0.00 84 1013.3
20260831133121 20 250 3.2 6.4 0.00 0.00 0.00 84 1013.2
20260831132623 20 250 1.6 6.4 0.00 0.00 0.00 84 1013.2
20260831132122 20 250 0.0 4.8 0.00 0.00 0.00 84 1013.2
20260831131622 20 250 0.0 0.0 0.00 0.00 0.00 84 1013.2
20260831131117 20 250 0.0 0.0 0.00 0.00 0.00 84 1013.2
20260831130849 20 250 0.0 0.0 0.00 0.00 0.00 84 1013.2
20260831130350 20 250 0.0 0.0 0.00 0.00 0.00 84 1013.2
20260831125114 20 250 0.0 0.0 0.00 0.00 0.00 84 1013.1
20260831124614 20 250 0.0 0.0 0.00 0.00 0.00 84 1013.1
20260831124345 20 250 0.0 0.0 0.00 0.00 0.00 84 1013.1
20260831123845 20 250 0.0 1.6 0.00 0.00 0.00 84 1013.0
20260831123341 20 250 0.0 1.6 0.00 0.00 0.00 84 1012.9
20260831122610 20 250 0.0 0.0 0.00 0.00 0.00 84 1012.9
20260831122110 20 250 0.0 0.0 0.00 0.00 0.00 84 1013.0
20260831121842 20 250 0.0 0.0 0.00 0.00 0.00 84 1012.9
20260831121106 20 250 0.0 0.0 0.00 0.00 0.00 84 1013.0
20260831120608 20 250 0.0 0.0 0.00 0.00 0.00 84 1013.0
20260831120340 20 250 0.0 0.0 0.00 0.00 0.00 84 1013.0
20260831115102 20 250 0.0 0.0 0.00 0.00 0.00 84 1013.1
20260831114834 20 250 0.0 0.0 0.00 0.00 0.00 84 1013.1
20260831114102 20 250 0.0 0.0 0.00 0.00 0.00 84 1013.1
20260831113603 20 250 0.0 4.8 0.00 0.00 0.00 84 1013.2
20260831113058 20 250 0.0 4.8 0.00 0.00 0.00 84 1013.1
20260831112558 20 250 0.0 0.0 0.00 0.00 0.00 84 1013.2
20260831112058 20 250 0.0 0.0 0.00 0.00 0.00 84 1013.2
20260831111558 21 250 0.0 0.0 0.00 0.00 0.00 84 1013.1
20260831111325 21 250 0.0 3.2 0.00 0.00 0.00 84 1013.2
20260831110554 21 250 1.6 4.8 0.00 0.00 0.00 83 1013.1
20260831110107 21 250 1.6 4.8 0.00 0.00 0.00 83 1013.1
20260831105554 21 250 1.6 3.2 0.00 0.00 0.00 83 1013.1
20260831105051 21 250 1.6 3.2 0.00 0.00 0.00 83 1013.1
20260831104550 21 250 1.6 4.8 0.00 0.00 0.00 83 1013.2
20260831104050 21 250 1.6 4.8 0.00 0.00 0.00 83 1013.2
20260831103821 21 250 1.6 4.8 0.00 0.00 0.00 83 1013.1
20260831103046 21 250 1.6 4.8 0.00 0.00 0.00 83 1013.1
20260831102546 21 250 1.6 4.8 0.00 0.00 0.00 83 1013.1
20260831102046 21 250 1.6 4.8 0.00 0.00 0.00 82 1013.1
20260831101547 21 250 1.6 4.8 0.00 0.00 0.00 82 1013.1
20260831101042 21 250 1.6 4.8 0.00 0.00 0.00 82 1013.0
20260831100542 21 250 1.6 4.8 0.00 0.00 0.00 82 1013.0
20260831100055 21 250 1.6 4.8 0.00 0.00 0.00 82 1013.0
20260831095542 21 250 1.6 4.8 0.00 0.00 0.00 82 1013.0
20260831095309 21 250 1.6 4.8 0.00 0.00 0.00 82 1012.9
20260831094538 21 250 1.6 3.2 0.00 0.00 0.00 82 1012.9
20260831094039 21 250 1.6 3.2 0.00 0.00 0.00 82 1013.0
20260831093034 21 250 1.6 3.2 0.00 0.00 0.00 82 1013.0
20260831092534 21 250 1.6 4.8 0.00 0.00 0.00 82 1013.0
20260831092035 21 250 1.6 4.8 0.00 0.00 0.00 82 1013.0
20260831091534 21 250 1.6 4.8 0.00 0.00 0.00 82 1013.0
20260831091041 21 250 1.6 4.8 0.00 0.00 0.00 81 1012.9
20260831090530 21 250 0.0 6.4 0.00 0.00 0.00 81 1012.9
20260831090030 21 250 1.6 6.4 0.00 0.00 0.00 81 1012.9
20260831085532 21 250 1.6 6.4 0.00 0.00 0.00 81 1012.8
20260831085255 21 250 1.6 8.0 0.00 0.00 0.00 81 1012.9
20260831084526 21 250 3.2 8.0 0.00 0.00 0.00 80 1012.9
20260831084026 21 250 1.6 6.4 0.00 0.00 0.00 80 1013.0
20260831083526 21 250 1.6 4.8 0.00 0.00 0.00 80 1013.0
20260831083025 21 250 1.6 4.8 0.00 0.00 0.00 79 1013.0
20260831082755 22 250 1.6 6.4 0.00 0.00 0.00 79 1013.1
20260831082025 22 250 3.2 6.4 0.00 0.00 0.00 79 1013.0
20260831081525 22 250 3.2 8.0 0.00 0.00 0.00 79 1013.1
20260831081255 22 250 3.2 8.0 0.00 0.00 0.00 79 1013.2
20260831080525 22 250 3.2 8.0 0.00 0.00 0.00 78 1013.2
20260831075526 22 250 3.2 8.0 0.00 0.00 0.00 78 1013.3
20260831075024 22 250 3.2 6.4 0.00 0.00 0.00 78 1013.3
20260831074526 22 250 3.2 6.4 0.00 0.00 0.00 78 1013.2
20260831074255 22 250 1.6 6.4 0.00 0.00 0.00 77 1013.3
20260831073526 22 250 1.6 6.4 0.00 0.00 0.00 77 1013.3
20260831073024 22 250 1.6 4.8 0.00 0.00 0.00 77 1013.2
20260831072525 22 250 1.6 4.8 0.00 0.00 0.00 76 1013.1
20260831072025 22 250 3.2 6.4 0.00 0.00 0.00 76 1013.1
20260831071525 22 250 1.6 6.4 0.00 0.00 0.00 76 1013.2
20260831071024 22 250 3.2 8.0 0.00 0.00 0.00 76 1013.1
20260831070757 22 250 1.6 8.0 0.00 0.00 0.00 76 1013.0
20260831070027 22 250 1.6 6.4 0.00 0.00 0.00 76 1013.0
20260831065756 22 250 1.6 4.8 0.00 0.00 0.00 76 1012.9
20260831065039 22 250 3.2 4.8 0.00 0.00 0.00 75 1012.9
20260831064527 22 250 3.2 6.4 0.00 0.00 0.00 74 1012.9
20260831064026 22 250 3.2 6.4 0.00 0.00 0.00 74 1012.9
20260831063524 23 250 3.2 6.4 0.00 0.00 0.00 74 1012.9
20260831063256 23 250 3.2 4.8 0.00 0.00 0.00 73 1012.9
20260831062755 23 250 1.6 4.8 0.00 0.00 0.00 72 1012.8
20260831062025 23 250 1.6 6.4 0.00 0.00 0.00 72 1012.9
20260831061522 23 250 3.2 9.7 0.00 0.00 0.00 72 1012.9
20260831061019 23 250 4.8 12.9 0.00 0.00 0.00 72 1012.7
20260831060518 23 250 4.8 12.9 0.00 0.00 0.00 72 1012.8
20260831060248 23 252 4.8 12.9 0.00 0.00 0.00 72 1012.9
20260831055517 23 251 4.8 12.9 0.00 0.00 0.00 72 1012.9
20260831055016 23 248 4.8 11.3 0.00 0.00 0.00 73 1012.8
20260831054515 23 248 4.8 11.3 0.00 0.00 0.00 73 1012.8
20260831054015 23 244 4.8 9.7 0.00 0.00 0.00 73 1012.9
20260831053516 23 244 3.2 9.7 0.00 0.00 0.00 72 1012.9
20260831053011 23 245 4.8 9.7 0.00 0.00 0.00 72 1012.9
20260831052751 23 245 4.8 11.3 0.00 0.00 0.00 72 1012.9
20260831052008 23 244 4.8 11.3 0.00 0.00 0.00 72 1012.9
20260831051508 23 243 6.4 12.9 0.00 0.00 0.00 72 1012.8
20260831051007 23 245 6.4 12.9 0.00 0.00 0.00 72 1012.8
20260831050509 23 242 4.8 14.5 0.00 0.00 0.00 71 1012.7
20260831050008 23 234 4.8 14.5 0.00 0.00 0.00 71 1012.8
20260831045508 23 249 4.8 11.3 0.00 0.00 0.00 70 1012.8
20260831045008 24 249 6.4 14.5 0.00 0.00 0.00 70 1012.7
20260831044506 24 252 6.4 14.5 0.00 0.00 0.00 70 1012.7
20260831044004 23 227 4.8 11.3 0.00 0.00 0.00 70 1012.6
20260831043504 23 225 4.8 9.7 0.00 0.00 0.00 70 1012.6
20260831043002 24 225 3.2 8.0 0.00 0.00 0.00 69 1012.5
20260831042500 24 225 4.8 9.7 0.00 0.00 0.00 69 1012.5
20260831042000 24 225 4.8 9.7 0.00 0.00 0.00 68 1012.5
20260831041948 24 225 6.4 14.5 0.00 0.00 0.00 68 1012.2
20260831041903 25 225 8.0 16.1 0.00 0.00 0.00 68 1012.1
20260831040727 25 214 8.0 16.1 0.00 0.00 0.00 67 1012.0
20260831035953 25 223 6.4 12.9 0.00 0.00 0.00 67 1012.0
20260831035451 25 225 6.4 14.5 0.00 0.00 0.00 67 1011.9
20260831034952 25 225 8.0 14.5 0.00 0.00 0.00 67 1011.9
20260831034451 25 219 6.4 12.9 0.00 0.00 0.00 67 1011.8
20260831033953 25 221 6.4 12.9 0.00 0.00 0.00 66 1011.6
20260831033450 25 216 8.0 17.7 0.00 0.00 0.00 66 1011.4
20260831032951 26 219 11.3 17.7 0.00 0.00 0.00 65 1011.3
20260831032448 26 221 11.3 19.3 0.00 0.00 0.00 65 1011.2
20260831031947 26 233 9.7 19.3 0.00 0.00 0.00 64 1011.2
20260831031448 26 215 9.7 16.1 0.00 0.00 0.00 64 1011.1
20260831030946 26 215 9.7 17.7 0.00 0.00 0.00 62 1011.0
20260831025944 26 217 11.3 17.7 0.00 0.00 0.00 60 1010.7
20260831025440 26 218 11.3 17.7 0.00 0.00 0.00 60 1010.7
20260831024938 27 230 11.3 19.3 0.00 0.00 0.00 59 1010.7
20260831024438 27 214 9.7 19.3 0.00 0.00 0.00 59 1010.7
20260831023939 27 223 11.3 20.9 0.00 0.00 0.00 57 1010.5
20260831023709 27 227 11.3 20.9 0.00 0.00 0.00 56 1010.5
20260831022933 27 205 12.9 22.5 0.00 0.00 0.00 55 1010.4
20260831022432 28 225 14.5 25.7 0.00 0.00 0.00 55 1010.4
20260831021933 28 221 12.9 25.7 0.00 0.00 0.00 54 1010.3
20260831021432 28 220 12.9 22.5 0.00 0.00 0.00 54 1010.3
20260831020930 28 219 14.5 25.7 0.00 0.00 0.00 53 1010.3
20260831020701 28 216 12.9 25.7 0.00 0.00 0.00 52 1010.3
20260831015929 29 221 12.9 24.1 0.00 0.00 0.00 51 1010.3
20260831015659 29 223 14.5 25.7 0.00 0.00 0.00 51 1010.3
20260831015156 29 221 14.5 25.7 0.00 0.00 0.00 50 1010.3
20260831014427 30 217 12.9 22.5 0.00 0.00 0.00 50 1010.3
20260831013919 30 211 12.9 22.5 0.00 0.00 0.00 49 1010.4
20260831013418 30 215 12.9 22.5 0.00 0.00 0.00 49 1010.4
20260831012918 30 219 14.5 27.4 0.00 0.00 0.00 49 1010.4
20260831012414 30 220 16.1 27.4 0.00 0.00 0.00 48 1010.4
20260831011914 30 221 16.1 22.5 0.00 0.00 0.00 48 1010.3
20260831011414 31 220 16.1 25.7 0.00 0.00 0.00 47 1010.3
20260831010911 31 216 16.1 25.7 0.00 0.00 0.00 47 1010.2
20260831010642 31 217 16.1 27.4 0.00 0.00 0.00 46 1010.2
20260831005909 31 220 16.1 27.4 0.00 0.00 0.00 46 1010.2
20260831005409 31 227 14.5 25.7 0.00 0.00 0.00 46 1010.3
20260831005142 31 232 16.1 25.7 0.00 0.00 0.00 46 1010.3
20260831004410 31 223 16.1 27.4 0.00 0.00 0.00 46 1010.2
20260831003910 31 197 14.5 27.4 0.00 0.00 0.00 46 1010.2
20260831003411 32 225 14.5 24.1 0.00 0.00 0.00 45 1010.2
20260831002910 32 216 16.1 30.6 0.00 0.00 0.00 44 1010.2
20260831002411 32 234 16.1 30.6 0.00 0.00 0.00 45 1010.3
20260831001909 32 231 14.5 27.4 0.00 0.00 0.00 45 1010.2
20260831001409 32 216 14.5 29.0 0.00 0.00 0.00 45 1010.2
20260831000909 32 226 16.1 29.0 0.00 0.00 0.00 45 1010.2
20260831000410 32 264 16.1 25.7 0.00 0.00 0.00 46 1010.2
20260830235909 32 228 17.7 25.7 0.00 0.00 0.00 46 1010.3
20260830235407 32 223 16.1 25.7 0.00 0.00 0.00 46 1010.3
20260830234907 32 221 14.5 25.7 0.00 0.00 0.00 45 1010.2
20260830234408 33 234 12.9 22.5 0.00 0.00 0.00 44 1010.2
20260830233909 33 242 14.5 29.0 0.00 0.00 0.00 44 1010.3
20260830233408 33 220 14.5 29.0 0.00 0.00 0.00 44 1010.3
20260830233140 33 214 14.5 27.4 0.00 0.00 0.00 42 1010.3
20260830232638 33 222 16.1 25.7 0.00 0.00 0.00 43 1010.3